"Pseudo-MPEC" for P20JEyD

Created 2018 Oct 13 14:18:07 UT using Find_Orb

Click here for an explanation of pseudo-MPECs

 
 Astrometry: 
     P20JEyD  C2018 10 10==AstrometrymZH+L_W[L-dMun_q(OC6Nq+m(Z0E'jGfp,w+X^p`F52
     P20JEyD  C2018 10 10ZrTsi6OrjM.?DnfL(PK/@LOjYMvk1lQE_r-PH%@ug9?5%F=UKOx0F52
     P20JEyD  C2018 10 10@W]pHHTnZmfgC4FcgW]#7)tFTUvRepcH@fp\tg+)es))]J:t'Q#xF52
     P20JEyD KC2018 10 101WNBD[DdG:Fu3cE(k(1(R%ZWY6/EG]ci[D3yF'EA:a^2`fXBQ:NWK88
     P20JEyD KC2018 10 10=bhPxwuE4^ho]Un]7mX+.=rH]PDijra[B83?33-L!/1JlHq$S%A%K88
     P20JEyD KC2018 10 10'YUKwV;XxSF=AYJm4VE*G!UZZa[6f7jcm+vk9BbZ!fM5F)5P+\Q1K88
     P20JEyD  C2018 10 117egrbl9R/`7+QP'm0redacted;(Y7r%t-/YC:k[%2-_5oQN!;58@H01
     P20JEyD  C2018 10 11C(4S0GE\M?i6y3QDH0VUpk$!t%/q=):E=H/emll25(e3/$D@Y:1]H01
     P20JEyD  C2018 10 11;+Xn4OxNNov]ZC)0?cuuv_@%3Z6KPvgbD!7B*elZ$,-4%pcTFHTAH01
     P20JEyD  C2018 10 11MBUm+nZm86^5@I'T-XfnFEdye2.,:P;2CGZ#:LmSa3VBh\*Hx!mqH01
     P20JEyD KC2018 10 11eG\QUBE_]1(^k_SrS,3@bVby:=G8o/]pEhKAhdYSlqy+Jq80*Ys:L01
     P20JEyD KC2018 10 11urT8sG0B0m806=QX'd1M60Y`'qq2*Dp[seeC(Of8vXHfvTDWrV+.L01
     P20JEyD IC2018 10 11@IHit4t:ThOr1W!QpR0r,L==yMH-mfVoVP)*Hx^6M0+2SUc'6I.SL01
     P20JEyD KC2018 10 12g-inN0KC@U'JX%bnRrJ7^$FA(9E6F2w'UkUepx+%/^^q,kDW(([)204
     P20JEyD KC2018 10 12_V1R!!RgxYCi4b:gn@FW$_)0PMg2/oHY4'-YfEIU-cvU)v3a[q1C204
     P20JEyD |C2018 10 13_xR;mUtN///ei)0l8q/4'l0nSldJW-cU9%InSwX,t'O#7A;cP)DB807
     P20JEyD |C2018 10 13:8u`=ccMVBv%vM]83W@c51**N54rW(0-hf-+)JX:m.?i5V[Ig!fg807
     P20JEyD |C2018 10 13Ja;_u4qWxXE?e*i=\K5%;E;3*i].PyH%gs\?Q[^pf;_)1v.NEOCP807

Station data:
(204) Schiaparelli Observatory  (N45.867933 E8.770800)  Italy.  Observer L.
   Buzzi. 0.60-m f/4.64 Newtonian + CCD.
(807) Cerro Tololo Observatory, La Serena  (S30.169136 W70.805900)  Chile.
   1.5-m Ritchey-Chrétien.
(F52) Pan-STARRS 2, Haleakala  (N20.707384 W156.255910)  US/Hawaii.
(H01) Magdalena Ridge Observatory, Socorro  (N33.984833 W107.189333)  US/New
   Mexico.  Observers W. H. Ryan, E. V. Ryan. Measurer W. H. Ryan. 2.4-m
   f/8.9 reflector + CCD.
(K88) GINOP-KHK, Piszkéstető  (N47.917622 E19.893600)  Hungary.  Observer K.
   Sárneczky. 0.60-m Schmidt + CCD.
(L01) Višnjan Observatory, Tičan  (N45.290900 E13.749300)  Croatia.  Observer
   K. Korlević. 1.0-m f/2.9 reflector + CCD.

Orbital elements:  P20JEyD
   Perihelion 2018 Sep 21.086445 +/- 0.0853 TT =  2:04:28 (JD 2458382.586445)
Epoch 2018 Oct 13.0 TT = JDT 2458404.5   Earth MOID: 0.1400   AutoNEOCP
M   6.15625 +/- 0.14                (J2000 ecliptic)
n   0.28093345 +/- 0.00572          Peri.  345.72266 +/- 0.08
a   2.30887493 +/- 0.0314           Node     4.97056 +/- 0.052
e   0.5057431 +/- 0.00614           Incl.    8.60205 +/- 0.058
P   3.51                   H 23.0   G  0.15   U  9.3  
q 1.14117715 +/- 0.00134    Q 3.47657271 +/- 0.0623
From 18 observations 2018 Oct. 10-13; mean residual 0".33
Residuals in arcseconds: 
181010 F52  .09+  .37+    181011 H01  .11-  .06-    181011 L01  .60+  .20-    
181010 F52  .03+  .25+    181011 H01  .14-  .06-    181012 204  .12+  .67+    
181010 F52  .09+  .44+    181011 H01  .08+  .15+    181012 204  .29+  .27-    
181010 K88  .07-  .71-    181011 H01  .09-  .13+    181013 807  .69-  .07+    
181010 K88  .13-  .44-    181011 L01  .24+  .06-    181013 807  .04-  .34-    
181010 K88  .69-  .28-    181011 L01  .56+  .26+    181013 807  .25-  .04+    

Ephemerides (geocentric):
Date (UTC) HH   RA              Dec         delta   r     elong  mag " sig PA
---- -- -- --  -------------   -----------  ------ ------ -----  --- ---- ---
2018 10 13 14  22 26 26.704   -03 16 10.92  .22204 1.1697 136.9 21.6  .25  30
2018 10 13 15  22 26 35.024   -03 13 33.99  .22217 1.1698 136.9 21.6  .26  29
2018 10 13 16  22 26 43.342   -03 10 57.21  .22231 1.1699 136.9 21.6  .28  27
2018 10 13 17  22 26 51.658   -03 08 20.58  .22244 1.1700 136.9 21.6  .30  26
2018 10 13 18  22 26 59.972   -03 05 44.10  .22257 1.1701 136.9 21.6  .32  25
2018 10 13 19  22 27 08.283   -03 03 07.77  .22270 1.1702 136.9 21.6  .33  25
2018 10 13 20  22 27 16.592   -03 00 31.59  .22283 1.1703 136.9 21.6  .35  24
2018 10 13 21  22 27 24.898   -02 57 55.55  .22297 1.1704 136.9 21.6  .37  23
2018 10 13 22  22 27 33.202   -02 55 19.66  .22310 1.1705 136.9 21.6  .39  22
2018 10 13 23  22 27 41.503   -02 52 43.93  .22323 1.1706 136.9 21.6  .41  22
2018 10 14 00  22 27 49.803   -02 50 08.34  .22337 1.1707 136.9 21.6  .43  21
2018 10 14 01  22 27 58.099   -02 47 32.91  .22350 1.1708 136.9 21.6  .45  21
2018 10 14 02  22 28 06.394   -02 44 57.62  .22363 1.1709 136.9 21.6  .47  20
2018 10 14 03  22 28 14.686   -02 42 22.48  .22377 1.1710 136.9 21.6  .49  20
2018 10 14 04  22 28 22.976   -02 39 47.50  .22390 1.1711 136.9 21.6  .51  19
2018 10 14 05  22 28 31.263   -02 37 12.66  .22404 1.1712 136.9 21.6  .53  19
2018 10 14 06  22 28 39.548   -02 34 37.98  .22417 1.1713 136.9 21.6  .55  19
2018 10 14 07  22 28 47.830   -02 32 03.45  .22431 1.1714 136.9 21.6  .57  18
2018 10 14 08  22 28 56.110   -02 29 29.07  .22445 1.1716 136.9 21.6  .60  18
2018 10 14 09  22 29 04.387   -02 26 54.84  .22458 1.1717 136.9 21.6  .62  18
2018 10 14 10  22 29 12.663   -02 24 20.76  .22472 1.1718 136.9 21.6  .64  17
2018 10 14 11  22 29 20.935   -02 21 46.84  .22485 1.1719 136.9 21.6  .66  17
2018 10 14 12  22 29 29.206   -02 19 13.06  .22499 1.1720 136.9 21.6  .69  17
2018 10 14 13  22 29 37.474   -02 16 39.44  .22513 1.1721 137.0 21.6  .71  17
2018 10 14 14  22 29 45.739   -02 14 05.97  .22527 1.1722 137.0 21.6  .73  16
2018 10 14 15  22 29 54.002   -02 11 32.66  .22540 1.1723 137.0 21.6  .76  16
2018 10 14 16  22 30 02.263   -02 08 59.50  .22554 1.1724 137.0 21.6  .78  16
2018 10 14 17  22 30 10.521   -02 06 26.49  .22568 1.1725 137.0 21.6  .81  16
2018 10 14 18  22 30 18.776   -02 03 53.63  .22582 1.1726 137.0 21.6  .83  15
2018 10 14 19  22 30 27.030   -02 01 20.93  .22596 1.1727 137.0 21.6  .86  15
2018 10 14 20  22 30 35.281   -01 58 48.38  .22610 1.1728 137.0 21.6  .88  15
2018 10 14 21  22 30 43.529   -01 56 15.99  .22624 1.1729 137.0 21.6  .91  15
2018 10 14 22  22 30 51.775   -01 53 43.74  .22638 1.1731 137.0 21.6  .93  15
2018 10 14 23  22 31 00.018   -01 51 11.66  .22652 1.1732 137.0 21.6  .96  15
2018 10 15 00  22 31 08.259   -01 48 39.73  .22666 1.1733 137.0 21.6  .98  14
2018 10 15 01  22 31 16.498   -01 46 07.95  .22680 1.1734 137.0 21.6  1.0  14
2018 10 15 02  22 31 24.734   -01 43 36.32  .22694 1.1735 137.0 21.6  1.0  14
2018 10 15 03  22 31 32.968   -01 41 04.86  .22708 1.1736 137.0 21.6  1.1  14
2018 10 15 04  22 31 41.199   -01 38 33.54  .22722 1.1737 137.0 21.6  1.1  14
2018 10 15 05  22 31 49.427   -01 36 02.39  .22736 1.1738 137.0 21.6  1.1  14
2018 10 15 06  22 31 57.654   -01 33 31.38  .22750 1.1739 137.0 21.6  1.1  14
2018 10 15 07  22 32 05.877   -01 31 00.54  .22765 1.1740 137.0 21.6  1.2  13
2018 10 15 08  22 32 14.099   -01 28 29.85  .22779 1.1742 137.0 21.6  1.2  13
2018 10 15 09  22 32 22.317   -01 25 59.31  .22793 1.1743 137.0 21.6  1.2  13
2018 10 15 10  22 32 30.534   -01 23 28.93  .22807 1.1744 137.0 21.6  1.3  13
2018 10 15 11  22 32 38.748   -01 20 58.71  .22822 1.1745 137.0 21.6  1.3  13
2018 10 15 12  22 32 46.959   -01 18 28.64  .22836 1.1746 137.0 21.6  1.3  13
2018 10 15 13  22 32 55.168   -01 15 58.73  .22851 1.1747 137.0 21.6  1.3  13